Location: Amsterdam
(30.7274°N, 84.4357°W)
Time: 00:12:33
(UTC+00:00)

Explorer 11/Cluster Stage 4 - Pass Details

Date: 23 February 2026
Orbit: 463 x 1176 km, 28.8° (Epoch: 9 March)

Event Time Altitude Azimuth Distance (km) Brightness Sun altitude
Rises 21:27:13 0° 265° (W) 2,646 10.4 24.4°
Reaches altitude 10° 21:30:23 10° 240° (WSW) 1,669 10.3 23.8°
Maximum altitude 21:32:26 14° 206° (SSW) 1,391 8.9 23.4°
Drops below altitude 10° 21:34:25 10° 173° (S) 1,602 8.5 23.0°
Sets 21:37:20 0° 146° (SE) 2,465 9.1 22.5°
